Location: Newark
(31.5350°N, 35.0986°E)
Time: 01:41:02
(UTC+00:00)

deb Explorer IX - All Passes

Search period start: 24 October 2019 00:00
Search period end: 03 November 2019 00:00
Orbit: 545 x 1106 km, 38.8° (Epoch: 22 October)

Date Brightness Start Highest point End Pass type
(mag) Time Alt. Az. Time Alt. Az. Time Alt. Az.
24 Oct - 06:32:09 10° SSE 06:33:03 11° SE 06:33:59 10° SE daylight
24 Oct - 08:14:50 10° SW 08:19:11 64° SSE 08:24:11 10° ENE daylight
24 Oct - 10:01:43 10° W 10:06:22 46° NNW 10:11:48 10° ENE daylight
24 Oct - 11:49:07 10° WNW 11:54:13 41° N 12:00:11 10° ENE daylight
24 Oct - 13:36:00 10° WNW 13:41:59 75° NNE 13:48:53 10° ESE daylight
24 Oct - 15:23:17 10° WNW 15:29:16 39° SW 15:35:51 10° SSE visible
25 Oct - 06:10:16 10° SSE 06:11:13 11° SE 06:12:11 10° ESE daylight
25 Oct - 07:53:06 10° SW 07:57:21 65° SSE 08:02:13 10° ENE daylight
25 Oct - 09:40:02 10° W 09:44:31 44° N 09:49:45 10° ENE daylight
25 Oct - 11:27:23 10° WNW 11:32:20 41° N 11:38:06 10° ENE daylight
25 Oct - 13:14:12 10° WNW 13:20:01 76° NNE 13:26:47 10° ESE daylight
25 Oct - 15:01:28 10° W 15:07:16 38° SW 15:13:42 10° SSE daylight
26 Oct - 05:48:20 10° SSE 05:49:22 11° SE 05:50:26 10° ESE daylight
26 Oct - 07:31:22 10° SW 07:35:33 67° SSE 07:40:15 10° ENE daylight
26 Oct - 09:18:19 10° W 09:22:41 43° N 09:27:43 10° ENE daylight
26 Oct - 11:05:39 10° WNW 11:10:27 40° N 11:16:02 10° ENE daylight
26 Oct - 12:52:25 10° WNW 12:58:04 77° NNE 13:04:41 10° ESE daylight
26 Oct - 14:39:39 10° W 14:45:16 36° SW 14:51:33 10° SSE daylight
27 Oct - 05:26:23 10° SSE 05:27:33 11° SE 05:28:44 10° ESE daylight
27 Oct - 07:09:37 10° SW 07:13:45 68° SSE 07:18:19 10° ENE daylight
27 Oct - 08:56:38 10° W 09:00:51 41° N 09:05:43 10° ENE daylight
27 Oct - 10:43:56 10° WNW 10:48:35 39° N 10:53:58 10° ENE daylight
27 Oct - 12:30:39 10° WNW 12:36:07 78° NNE 12:42:36 10° ESE daylight
27 Oct - 14:17:52 10° W 14:23:17 35° SW 14:29:23 10° SSE daylight
28 Oct - 05:04:24 10° SSE 05:05:43 11° SE 05:07:04 10° ESE daylight
28 Oct - 06:47:52 10° SW 06:51:57 70° SSE 06:56:25 10° ENE daylight
28 Oct - 08:34:56 10° W 08:39:03 40° N 08:43:43 10° ENE daylight
28 Oct - 10:22:13 10° WNW 10:26:43 38° N 10:31:55 10° ENE daylight
28 Oct - 12:08:54 10° WNW 12:14:12 79° NNE 12:20:30 10° ESE daylight
28 Oct - 13:56:06 10° W 14:01:19 33° SW 14:07:13 10° SSE daylight
29 Oct - 04:42:23 10° SSE 04:43:53 12° SE 04:45:25 10° ESE daylight
29 Oct - 06:26:07 10° SW 06:30:10 72° SSE 06:34:32 10° ENE daylight
29 Oct - 08:13:14 10° W 08:17:15 39° N 08:21:45 10° ENE daylight
29 Oct - 10:00:31 10° WNW 10:04:53 37° N 10:09:54 10° ENE daylight
29 Oct - 11:47:08 10° WNW 11:52:18 80° NNE 11:58:25 10° ESE daylight
29 Oct - 13:34:21 10° W 13:39:22 32° SW 13:45:03 10° SSE daylight
30 Oct - 04:20:22 10° SSE 04:22:05 12° SE 04:23:46 10° ESE daylight
30 Oct - 06:04:20 10° WSW 06:08:23 74° SSE 06:12:39 10° ENE daylight
30 Oct - 07:51:32 10° W 07:55:27 37° N 07:59:48 10° ENE daylight
30 Oct - 09:38:49 10° WNW 09:43:03 37° N 09:47:53 10° ENE daylight
30 Oct - 11:25:24 10° WNW 11:30:25 81° NNE 11:36:21 10° ESE daylight
30 Oct - 13:12:37 10° W 13:17:25 30° SW 13:22:53 10° SSE daylight
31 Oct - 03:58:20 10° S 04:00:15 13° SE 04:02:09 10° ESE daylight
31 Oct - 05:42:32 10° WSW 05:46:37 76° SSE 05:50:48 10° ENE daylight
31 Oct - 07:29:49 10° WNW 07:33:40 36° N 07:37:52 10° ENE daylight
31 Oct - 09:17:06 10° WNW 09:21:13 36° N 09:25:53 10° ENE daylight
31 Oct - 11:03:40 10° WNW 11:08:32 82° NNE 11:14:17 10° ESE daylight
31 Oct - 12:50:55 10° W 12:55:30 28° SW 13:00:42 10° SSE daylight
01 Nov - 03:36:17 10° S 03:38:26 14° SE 03:40:32 10° ESE daylight
01 Nov - 05:20:44 10° WSW 05:24:49 79° SSE 05:28:58 10° ENE daylight
01 Nov - 07:08:05 10° WNW 07:11:53 35° N 07:15:57 10° ENE daylight
01 Nov - 08:55:23 10° WNW 08:59:24 35° N 09:03:54 10° ENE daylight
01 Nov - 10:41:57 10° WNW 10:46:40 84° NNE 10:52:14 10° ESE daylight
01 Nov - 12:29:13 10° W 12:33:35 27° SW 12:38:31 10° SSE daylight
02 Nov - 03:14:13 10° S 03:16:37 15° SE 03:18:55 10° ESE visible
02 Nov - 04:58:54 10° WSW 05:03:02 81° SSE 05:07:09 10° ENE daylight
02 Nov - 06:46:21 10° WNW 06:50:06 34° N 06:54:04 10° ENE daylight
02 Nov - 08:33:40 10° WNW 08:37:35 35° N 08:41:57 10° ENE daylight
02 Nov - 10:20:13 10° WNW 10:24:49 85° NNE 10:30:12 10° ESE daylight
02 Nov - 12:07:32 10° W 12:11:41 25° SW 12:16:21 10° SSE daylight
